TIME,DELAY(SENSOR),PRES,OXYGEN,RAWTEMP,T(OPTODE),TCPHASE,FLUOR,BETA(BETA700),BETA(BETA412),BETA(BETA440),CDOM,C(CSC),ED(ED412.40),ED(ED444.00),ED(ED489.70),ED(ED554.30),LU(LU411.80),LU(LU443.40),LU(LU489.60),LU(LU554.10),COMP,TILTX,TILTY,CHECK
1334807675,5808,895.2800292968750000,42.6391601562500000,660.4083862304688000,4.6145272254943850,54.6076698303222660,53,100,90,80,83,15279,2147758116,2147422299,2148003364,2147871360,2147641645,2147070564,2148262875,2147204278,706,4,14,55946
1334811271,5805,973.9500122070312000,45.6952781677246100,670.7899169921875000,4.2721018791198730,54.2860183715820300,53,101,90,80,83,15279,2147760996,2147423780,2148006390,2147872740,2147638875,2147060032,2148263936,2147207689,2218,4,14,36195
1334814871,5811,992.5900268554688000,47.1300582885742200,672.5706176757812000,4.2132449150085450,54.1030998229980500,53,100,87,79,85,15277,2147760502,2147420297,2148003209,2147874697,2147644178,2147063753,2148263296,2147202569,66,4,13,61202
1334818471,5810,1005.6400146484375000,45.6993408203125000,671.7540283203125000,4.2402400970458980,54.2996101379394500,54,100,89,79,84,15277,2147757622,2147420516,2148008320,2147876187,2147645165,2147063835,2148258377,2147204022,461,4,14,6274
1334822071,5811,1015.1400146484375000,45.2629318237304700,670.9309082031250000,4.2674407958984375,54.3512306213378900,53,100,92,80,84,15277,2147760283,2147425609,2148006162,2147873216,2147643492,2147064484,2148261577,2147198290,3039,4,14,42737
1334825671,5809,1003.7000122070312000,45.3769798278808600,671.5828247070312000,4.2458992004394530,54.3433189392089840,53,99,87,79,83,15276,2147758244,2147420672,2148008813,2147874121,2147645714,2147067977,2148264164,2147200685,1117,4,14,40410
1334829271,5809,1006.4699707031250000,46.1844596862793000,674.0695800781250000,4.1636700630187990,54.2548713684082000,53,100,90,79,83,15277,2147757476,2147423030,2148006601,2147872411,2147645595,2147058221,2148268178,2147203401,251,4,13,60981
1334832871,5810,1009.9299926757812000,46.2269096374511700,673.9937133789062000,4.1661820411682130,54.2506294250488300,53,99,87,80,83,15276,2147760621,2147419446,2148005842,2147875053,2147644086,2147061970,2148264429,2147205568,597,4,14,21100
1334836471,5806,1004.6300048828125000,46.3523406982421900,674.4595947265625000,4.1507658958435060,54.2379188537597660,53,101,89,80,84,15277,2147759067,2147421595,2148002450,2147872713,2147642916,2147058678,2148261942,2147206820,116,4,14,30191
1334840071,5806,1004.7800292968750000,47.0691413879394500,675.6870117187500000,4.1101489067077640,54.1536216735839840,52,100,88,79,84,15278,2147757979,2147424045,2148005001,2147870546,2147646436,2147059794,2148266724,2147202633,320,4,13,11882
1334843671,5809,1006.5499877929688000,46.9658813476562500,675.3182983398438000,4.1223530769348145,54.1615104675293000,53,104,89,80,84,15275,2147757467,2147425124,2148002532,2147875300,2147645714,2147059821,2148264246,2147201773,372,4,13,49104
1334847271,5809,1005.6699829101562000,46.7660903930664060,675.1915893554688000,4.1265468597412110,54.1852111816406250,53,108,88,79,83,15277,2147761142,2147422692,2148005979,2147874176,2147644754,2147063213,2148262235,2147202148,146,4,13,46058
1334850871,5808,1007.2999877929688000,46.6099281311035160,676.0751953125000000,4.0973010063171390,54.2200202941894500,54,101,90,79,82,15276,2147758921,2147422555,2148005860,2147870582,2147645878,2147065042,2148268434,2147203702,681,4,13,34989
1334854471,5808,1003.6900024414062000,47.0553894042968750,676.3038940429688000,4.0897312164306640,54.1627883911132800,53,99,90,79,84,15276,2147758061,2147421778,2148009444,2147874294,2147644973,2147065115,2148266276,2147200859,356,4,13,39023
1334858071,5806,1009.0900268554688000,46.8034400939941400,675.6411743164062000,4.1116662025451660,54.1893997192382800,52,99,85,79,83,15276,2147758582,2147423744,2148005394,2147874377,2147643995,2147065974,2148261238,2147203904,129,4,13,62464
1334861671,5809,1010.7199707031250000,46.5839805603027340,675.2487792968750000,4.1246509552001950,54.2110099792480500,54,110,92,80,84,15277,2147759177,2147419574,2148004918,2147874742,2147643629,2147063926,2148263734,2147203026,192,4,13,2101
1334865271,5809,1017.5599975585938000,47.0009994506835940,675.2498168945312000,4.1246218681335450,54.1565895080566400,53,99,88,79,83,15277,2147757915,2147424292,2148009289,2147873837,2147638784,2147063963,2148262939,2147199506,3337,4,14,24750
1334868871,5809,1013.0700073242188000,45.7948799133300800,674.0629882812500000,4.1638889312744140,54.3089599609375000,53,103,89,80,83,15274,2147759853,2147421952,2148003730,2147875922,2147641472,2147065444,2148265810,2147205083,3228,4,13,24885
1334872471,5809,1025.5300292968750000,46.0247993469238300,673.4517211914062000,4.1841068267822270,54.2742500305175800,53,100,93,79,84,15252,2147756086,2147422884,2148006171,2147875629,2147643776,2147064320,2148264246,2147202477,3478,4,13,17382
1334876071,5804,1016.3300170898438000,45.5225105285644500,673.5142822265625000,4.1820368766784670,54.3404083251953100,53,100,86,79,85,15245,2147755931,2147422326,2148002642,2147872256,2147644388,2147061878,2148254774,2147201188,708,4,13,39480
1334879671,5810,1011.0300292968750000,45.6436004638671900,674.6026000976562000,4.1460361480712890,54.3414497375488300,53,101,89,79,83,15226,2147759040,2147421586,2148007780,2147873526,2147642139,2147059337,2148266139,2147203172,192,4,13,47749
1334883271,5809,1004.4500122070312000,46.6409797668457000,676.2188720703125000,4.0925431251525880,54.2202110290527340,53,99,88,79,83,15226,2147759433,2147424192,2148007030,2147874002,2147646043,2147064219,2148262272,2147200530,480,4,13,652
1334886871,5810,1014.6500244140625000,47.3646392822265600,676.4973144531250000,4.0833277702331540,54.1160697937011700,53,100,91,81,84,15225,2147759680,2147421888,2148005120,2147875190,2147644297,2147061522,2148264868,2147203401,3512,4,13,30175
1334890471,5809,1018.2500000000000000,46.9332809448242200,675.3593139648438000,4.1209959983825680,54.1642990112304700,52,103,90,79,84,15218,2147757952,2147420233,2148006756,2147874395,2147642870,2147064237,2148264960,2147203602,3175,4,13,4629
1334894071,5808,1020.2399902343750000,45.9480590820312500,675.0662841796875000,4.1306920051574710,54.3033790588378900,53,100,88,80,83,15222,2147758619,2147423058,2148002998,2147874322,2147643931,2147061723,2148264420,2147198646,408,4,13,1181
1334897671,5808,1021.4099731445312000,47.1076087951660160,676.3192749023438000,4.0892181396484375,54.1487998962402340,53,101,90,78,84,15225,2147758848,2147421110,2148006610,2147874459,2147643501,2147061348,2148262491,2147202642,3289,4,13,9626
1334901271,5809,1023.2800292968750000,45.8620491027832000,675.0764770507812000,4.1303539276123050,54.3154487609863300,52,100,90,80,83,15226,2147760612,2147419529,2148005019,2147873517,2147644790,2147062363,2148264045,2147207744,593,4,13,8462
1334904871,5810,1036.5600585937500000,45.9148216247558600,673.0557250976562000,4.1972031593322750,54.2837104797363300,53,101,89,79,83,15224,2147757686,2147422957,2148006006,2147874432,2147642651,2147062089,2148268544,2147202889,511,4,13,9518
1334908471,5812,1029.5200195312500000,45.6679611206054700,673.5615844726562000,4.1804728507995605,54.3243904113769500,52,101,89,78,83,15213,2147758006,2147422509,2148005494,2147876370,2147641417,2147063579,2148262034,2147201462,286,4,13,18650
1334912071,5809,1030.9399414062500000,45.4304008483886700,673.0098876953125000,4.1987152099609375,54.3497085571289060,53,100,88,79,83,15217,2147760073,2147417618,2148006107,2147872850,2147641042,2147063652,2148263085,2147199222,3577,4,13,39040
1334915671,5810,1030.2099609375000000,45.1265716552734400,672.9155883789062000,4.2018342018127440,54.3912200927734400,53,101,88,78,83,15216,2147760539,2147420580,2148004425,2147875785,2147643702,2147058998,2148264356,2147202038,283,4,13,41970
1334919271,5811,1034.1800537109375000,45.2266616821289060,672.2949829101562000,4.2223548889160160,54.3697700500488300,53,100,88,80,82,15218,2147761481,2147422134,2148005302,2147874697,2147643117,2147063360,2148262217,2147203474,378,4,13,55012
1334922871,5811,1013.1400146484375000,44.7105712890625000,672.5751953125000000,4.2130908966064450,54.4499015808105500,53,118,91,80,84,15215,2147761481,2147423478,2148005202,2147876032,2147642404,2147067693,2148262171,2147204562,3549,4,13,28306
1334926471,5809,1002.8900146484375000,45.4396705627441400,673.8572998046875000,4.1706919670104980,54.3621292114257800,53,100,91,80,84,15217,2147761828,2147421595,2148003108,2147874413,2147640777,2147065974,2148264530,2147203584,825,4,13,59809
1334930071,5806,1012.3499755859375000,45.9395408630371100,674.3380126953125000,4.1547908782958980,54.2941513061523440,53,98,90,79,84,15217,2147763392,2147422619,2148003684,2147873325,2147642066,2147065618,2148264100,2147203803,262,4,13,64196
1334933671,5808,1010.8099975585938000,46.3905982971191400,675.5181884765625000,4.1157360076904300,54.2427711486816400,53,101,91,78,83,15219,2147757915,2147422573,2148002998,2147873170,2147642112,2147070829,2148265216,2147201947,378,4,13,29951
1334937271,5813,1009.1099853515625000,46.5488090515136700,675.1425781250000000,4.1281661987304690,54.2138900756835940,53,99,89,80,83,15214,2147758326,2147423140,2148003538,2147875794,2147644251,2147061888,2148267794,2147203181,4,4,13,7791
1334940871,5811,1002.8400268554688000,46.6225700378418000,676.2321166992188000,4.0921077728271480,54.2177391052246100,53,101,91,80,84,15225,2147760786,2147420461,2148006125,2147873225,2147642715,2147056630,2148266843,2147204544,143,4,13,38043
1334944471,5807,1008.1199951171875000,46.1946907043457000,674.7133178710938000,4.1423740386962890,54.2574005126953100,52,100,87,80,84,15209,2147760704,2147423369,2148007296,2147871222,2147643721,2147064393,2148265453,2147205266,2935,4,13,36378
1334948071,5808,1001.0399780273438000,46.3047599792480500,676.1453247070312000,4.0949797630310060,54.2625198364257800,53,98,86,80,85,15220,2147759908,2147422628,2148006262,2147870784,2147644809,2147063542,2148261449,2147201097,27,4,13,2293
1334951671,5810,1004.5499877929688000,46.5675010681152340,676.3933715820312000,4.0867648124694820,54.2318611145019500,51,99,91,80,84,15219,2147762834,2147423451,2148006902,2147873289,2147643008,2147064384,2148260745,2147202998,154,4,13,46783
1334951759,5811,1004.5800170898438000,46.4752388000488300,676.3046875000000000,4.0897049903869630,54.2385597229003900,53,100,90,82,84,15269,2147762285,2147423881,2148004626,2147871771,2147643273,2147063570,2148261814,2147206948,3558,4,13,14520
